Location: Pian di Sc�
(43.6333°N, 11.5500°E)
Time: 14:27:20
(UTC+00:00)

SL-16 R/B - Pass Details

Date: 07 August 2020
Orbit: 841 x 849 km, 71.0° (Epoch: 23 September)

Event Time Altitude Azimuth Distance (km) Brightness Sun altitude
Rises 02:00:38 0° 331° (NNW) 3,422 5.6 -19.6°
Reaches altitude 10° 02:03:07 10° 328° (NNW) 2,482 4.8 -19.3°
Maximum altitude 02:08:43 60° 250° (WSW) 965 2.2 -18.7°
Enters shadow 02:13:12 16° 174° (S) 2,073 3.9 -18.1°
